SCP
0 0 0 0 0 0 0 0 0 0 0 0 0 0 0 1 1 1 1 2 1 2 2 2 2 1 1 1 0 1 1 1 1 1 0 0 0 0 0 0 0 0 0
0 0 1 1 0 1 0 1 1 1 1 1 0 1 1 1 2 2 2 3 2 1 2 2 3 2 3 0 1 1 1 1 1 1 0 1 0 0 0 0 0 0 0
0 1 1 1 1 2 2 2 1 2 2 1 1 1 1 1 2 2 4 5 2 1 1 4 3 0 1 1 1 2 1 1 1 1 0 0 0 0 0 0 0 0 0
1 1 1 1 2 3 3 3 2 2 3 1 1 1 1 1 2 2 3 2 2 1 2 3 3 2 1 1 1 2 2 1 1 1 1 0 0 0 0 0 0 0 0
1 1 1 2 3 3 2 2 1 1 1 1 2 2 2 1 2 2 2 1 3 3 2 3 2 1 1 1 1 2 2 2 1 1 1 1 1 1 0 0 0 0 0
2 3 2 3 3 3 3 2 3 2 2 2 2 2 1 2 2 1 2 2 2 2 4 2 0 1 1 1 1 2 2 2 1 1 1 1 1 1 0 0 0 0 0
2 3 3 4 5 5 4 4 2 1 1 1 2 1 1 1 1 0 1 1 1 2 2 1 0 0 1 1 1 2 1 1 0 1 1 1 1 1 1 0 0 0 0
2 2 2 2 3 3 1 2 1 1 1 1 1 1 1 0 0 0 -0 0 1 1 1 2 0 0 2 2 2 1 1 1 2 1 1 1 1 1 1 1 0 0 0
0 0 0 0 0 0 0 0 0 0 0 0 0 1 0 0 0 0 0 0 0 1 2 2 2 2 2 3 1 1 1 1 1 1 2 2 1 1 1 1 1 0 0
0 0 0 0 0 0 0 0 0 0 0 0 0 0 0 0 0 0 0 0 0 0 1 2 1 0 0 0 1 1 1 1 1 2 1 1 1 1 1 1 1 1 0
0 0 0 0 0 0 0 0 0 0 0 0 0 0 0 0 0 0 0 0 0 0 0 0 1 1 1 1 1 1 2 1 1 1 1 1 1 1 1 1 1 1 1
0 0 0 0 0 0 0 0 0 0 0 0 0 0 0 0 0 0 0 0 0 0 0 0 0 0 1 1 2 1 1 0 1 1 1 1 1 1 1 1 1 1 1
0 0 0 0 0 0 0 0 0 0 0 0 0 0 0 0 0 0 0 0 0 0 0 0 0 0 1 1 1 0 0 0 0 0 0 0 1 1 1 1 1 1 1
0 0 0 0 0 0 0 0 0 0 0 0 0 0 0 0 0 0 0 0 0 0 0 0 0 0 0 -0 0 0 0 0 0 0 0 0 0 1 1 1 1 1 0
0 0 0 0 0 0 0 0 0 0 0 0 0 0 0 0 0 0 0 0 0 0 0 0 0 0 0 -0 0 0 0 0 0 0 0 0 0 0 0 0 1 1 1
0 0 0 0 0 0 0 0 0 0 0 0 0 0 0 0 0 0 0 0 0 0 0 0 0 0 0 -0 0 0 0 0 0 0 0 0 0 0 0 0 0 0 0
0 0 0 0 0 0 0 0 0 0 0 0 0 0 0 0 0 0 0 0 0 0 0 0 0 0 0 -0 -0 0 0 0 0 0 0 0 0 0 0 0 0 0 0
0 0 0 0 0 0 0 0 0 0 0 0 0 0 0 0 0 0 0 0 0 0 0 0 0 0 0 0 0 0 0 0 0 0 0 0 0 0 0 0 0 0 0
0 0 0 0 0 0 0 0 0 0 0 0 0 0 0 0 0 0 0 0 0 0 0 0 0 0 0 0 0 0 0 -0 0 0 0 0 0 0 0 0 0 0 0
0 0 0 0 0 0 0 0 0 0 0 0 0 0 0 0 0 0 0 0 0 0 0 0 0 0 0 0 0 0 0 0 -0 0 0 0 0 0 0 0 0 0 0
0 0 0 0 0 0 0 0 0 0 0 0 0 0 0 0 0 0 0 0 0 0 0 0 0 0 0 0 0 0 0 0 0 -0 0 0 0 0 0 0 0 0 0
0 0 0 0 0 0 0 0 0 0 0 0 0 0 0 0 0 0 0 0 0 0 0 0 0 0 0 0 0 0 0 0 -0 -0 -0 0 0 0 0 0 0 0 0
0 0 0 0 0 0 0 0 0 0 0 0 0 0 0 0 0 0 0 0 0 0 0 0 0 0 0 0 0 0 0 0 0 0 0 0 0 0 0 0 0 0 0
0 0 0 0 0 0 0 0 0 0 0 0 0 0 0 0 0 0 0 0 0 0 0 0 0 0 0 0 0 0 0 0 0 0 0 0 0 0 0 -0 -0 0 0
0 0 0 0 0 0 0 0 0 0 0 0 0 0 0 0 0 0 0 0 0 0 0 0 0 0 0 0 0 0 0 0 0 0 0 0 0 0 0 0 -0 -0 -0
0 0 0 0 0 0 0 0 0 0 0 0 0 0 0 0 0 0 0 0 0 0 0 0 0 0 0 0 0 0 0 0 0 0 0 0 0 0 0 0 0 0 0
Wind_Speed_500mb
8 16 11 21 22 24 17 21 28 27 32 34 33 32 33 37 46 42 37 42 52 56 52 49 42 36 32 35 40 37 38 38 35 36 35 32 28 28 30 27 24 23 22
18 23 17 19 14 16 18 22 24 30 35 34 36 37 38 42 44 44 46 43 53 55 60 51 46 34 37 46 49 45 44 43 40 35 36 33 30 27 28 26 27 26 25
24 23 19 18 18 17 25 31 30 29 33 36 40 46 45 48 44 49 46 55 61 55 55 59 69 56 52 49 52 46 39 44 46 41 35 33 30 26 24 25 26 27 28
17 18 12 9 14 23 24 27 34 33 35 41 39 47 45 49 58 59 65 69 50 41 52 57 60 48 46 46 49 40 38 36 41 44 41 35 33 30 27 24 23 23 26
12 21 16 17 24 28 26 29 37 43 49 37 37 44 47 56 57 70 61 56 53 58 51 57 58 43 43 44 46 48 40 43 40 40 39 37 36 34 32 30 27 24 24
18 21 16 24 27 32 35 38 43 49 50 49 46 49 53 60 59 57 64 60 54 50 50 68 44 49 56 54 55 65 60 75 52 42 40 41 39 39 38 35 35 30 26
31 29 29 26 25 24 24 29 36 42 50 52 56 57 59 58 58 60 64 67 58 42 50 63 56 48 50 66 63 67 58 56 48 47 46 42 42 40 40 39 37 35 30
15 13 10 12 13 10 16 26 38 39 38 36 43 54 37 57 49 44 50 54 46 55 44 57 45 42 53 56 58 56 57 55 49 46 46 41 39 39 39 37 38 35 32
3 3 8 10 5 12 19 23 28 33 39 37 28 39 38 29 67 59 62 64 56 48 43 49 57 49 57 60 58 54 52 59 67 59 53 47 38 39 36 36 36 35 33
9 9 9 10 13 19 23 29 33 41 43 42 44 37 40 44 55 68 60 68 66 61 55 43 52 58 56 62 60 64 63 68 55 55 48 47 41 39 36 35 36 36 34
11 8 13 16 19 25 30 36 45 51 44 38 38 46 52 44 45 56 73 57 55 59 63 62 57 50 52 59 67 61 71 56 62 49 45 49 51 41 40 39 39 36 31
10 14 17 20 25 29 36 42 48 52 32 36 51 47 47 47 50 54 65 72 71 65 56 58 55 55 56 52 48 59 63 61 61 64 57 51 52 46 45 42 41 36 31
3 13 15 23 28 35 41 49 58 46 36 46 48 56 47 54 45 50 57 64 66 67 65 63 55 52 57 63 59 61 64 68 63 49 43 51 55 51 43 43 45 37 27
7 10 19 27 35 39 40 44 53 44 50 42 52 53 47 46 49 52 59 66 73 69 62 60 59 56 56 61 46 44 42 52 60 77 82 63 46 47 47 50 47 37 29
9 13 23 32 37 40 38 39 45 45 46 56 55 44 47 60 67 61 54 54 61 70 63 56 58 53 56 55 45 46 47 42 51 44 50 60 45 48 47 54 54 43 38
13 22 28 32 37 39 38 42 52 56 57 50 50 64 65 52 51 56 50 49 50 59 71 60 60 62 63 66 61 54 46 42 43 37 37 39 54 52 59 72 65 63 73
19 27 32 37 35 37 40 49 57 59 51 61 58 48 49 52 46 46 48 53 56 56 62 68 67 70 75 79 72 56 48 46 49 45 45 44 51 69 73 78 70 67 66
25 32 35 39 41 40 45 52 57 57 50 47 53 54 41 49 55 53 52 51 54 61 70 75 76 79 71 60 57 59 55 45 34 39 51 53 49 51 56 62 60 62 61
32 39 42 44 46 45 48 51 43 43 49 54 52 44 48 45 43 44 47 54 53 46 49 59 65 62 61 59 70 75 67 57 40 32 34 44 44 46 43 46 55 65 65
40 42 43 49 50 45 40 46 48 54 57 51 44 38 39 38 43 52 51 50 49 55 59 61 57 58 56 54 52 51 53 60 58 35 38 33 34 31 30 37 45 53 65
43 49 52 47 42 31 39 45 52 51 47 42 37 37 34 43 37 39 43 55 63 58 58 60 56 53 53 52 53 56 60 51 65 61 59 27 32 19 17 29 38 48 51
53 50 44 37 28 35 43 43 50 48 40 39 36 45 44 40 36 48 48 47 53 59 60 61 64 65 64 62 58 58 61 64 65 62 48 56 48 32 19 8 15 36 50
46 40 31 30 34 35 41 47 51 42 37 35 37 43 47 36 37 39 48 54 55 49 48 55 61 63 64 59 54 54 53 56 57 60 50 55 55 58 44 35 28 16 30
35 34 31 27 33 37 42 47 48 40 30 30 37 36 36 36 35 45 58 67 69 65 62 56 50 57 60 61 59 63 70 69 70 63 56 55 53 45 65 66 61 43 28
33 23 21 27 31 34 42 43 49 42 31 36 33 25 32 37 48 59 72 83 76 71 63 57 54 59 58 61 65 62 60 57 60 55 51 42 47 48 45 46 77 77 64
24 27 27 27 28 28 36 45 46 36 32 39 34 25 29 36 49 60 67 64 70 71 68 63 56 57 52 51 44 46 55 54 49 45 28 25 32 28 28 30 27 33 47
Wind_Direction_500mb
236 263 257 244 231 245 270 285 295 288 277 286 291 288 290 279 275 285 286 282 285 293 291 293 287 282 280 281 283 279 273 271 269 269 265 262 260 258 259 255 252 248 249
216 245 259 289 292 283 275 275 268 270 266 276 276 276 275 284 282 290 282 277 283 284 288 291 276 257 263 268 263 268 267 267 264 263 260 258 254 256 259 257 253 250 244
217 243 238 236 254 279 278 285 285 294 305 305 306 304 299 296 294 293 284 285 293 281 280 283 267 270 280 256 260 257 261 261 259 258 258 254 255 253 253 254 254 250 246
235 243 264 285 295 270 279 282 301 285 279 281 287 288 290 287 288 280 284 289 290 292 287 289 265 282 284 255 256 254 261 268 262 257 255 253 250 251 251 252 248 247 245
298 293 280 256 264 271 277 287 285 287 297 294 297 295 293 293 290 292 297 285 277 284 287 275 279 287 290 266 253 247 267 269 264 258 252 250 252 255 254 251 250 252 251
229 245 258 270 273 275 277 280 285 282 291 295 295 298 295 292 304 288 294 288 272 288 282 260 287 313 278 269 259 261 272 276 265 262 253 254 253 254 253 250 250 251 254
242 258 258 266 275 291 295 296 299 302 299 296 299 295 292 288 286 289 304 285 276 265 304 284 288 289 292 273 270 265 262 260 255 262 260 256 248 251 252 251 251 250 248
260 263 284 287 303 333 316 320 315 325 332 332 336 324 318 310 309 291 281 299 309 308 289 289 290 290 284 275 263 264 260 253 263 271 256 247 246 246 246 248 247 247 244
94 40 29 37 12 316 344 346 339 342 335 322 316 325 324 312 316 309 301 299 294 295 302 287 282 281 287 288 282 270 258 264 274 266 248 243 246 245 241 241 240 240 243
98 67 39 15 349 334 339 346 344 343 336 329 315 298 287 304 323 312 309 310 306 299 292 299 287 283 276 268 269 278 278 279 268 256 246 240 235 242 242 243 249 245 244
114 67 31 22 9 358 354 348 344 343 337 331 332 318 322 321 311 314 317 319 314 316 311 306 305 307 298 287 278 272 277 280 264 258 250 247 245 237 245 247 241 240 243
73 46 31 13 359 351 346 343 343 343 343 315 320 326 321 324 320 315 313 312 311 311 309 311 311 300 301 296 292 286 269 274 272 263 253 250 242 241 243 245 238 238 238
320 1 10 357 349 343 339 336 338 343 320 316 319 320 321 312 319 316 314 313 312 310 310 306 305 310 312 307 302 287 281 272 267 257 246 250 244 243 237 236 238 234 242
251 337 345 339 335 334 332 326 326 328 323 316 311 307 315 317 307 306 309 315 313 311 311 308 306 305 306 315 315 312 303 282 279 272 270 254 249 233 232 230 233 234 254
99 309 326 326 325 326 319 314 313 313 309 306 314 318 303 298 299 304 303 300 306 307 306 310 311 307 305 312 316 318 308 307 287 285 259 229 238 249 243 227 217 221 229
309 325 327 319 320 321 314 312 306 306 312 318 304 303 307 310 304 303 309 304 299 298 302 306 305 299 287 296 302 302 313 306 294 281 262 252 248 248 235 241 246 241 251
317 325 321 322 317 311 308 303 303 306 306 299 307 307 299 306 302 296 293 289 287 287 295 294 290 293 291 289 299 310 312 300 297 288 279 269 252 249 254 250 242 233 247
319 319 319 315 311 306 303 300 300 304 306 297 294 305 308 301 302 305 302 297 295 290 294 301 297 294 291 286 287 293 297 295 289 289 281 280 290 274 258 249 248 240 243
314 317 315 312 309 304 301 305 305 294 294 306 312 304 304 313 322 314 311 311 311 307 295 296 298 298 304 306 294 285 289 294 289 285 280 280 279 279 269 268 248 242 236
318 316 312 308 311 312 310 301 304 306 313 316 314 317 321 323 304 310 309 307 307 305 303 304 301 296 298 301 303 305 305 294 289 273 270 268 282 286 278 266 259 249 239
313 312 313 317 320 326 302 302 306 313 315 316 320 323 312 297 310 308 307 306 308 309 308 306 302 304 306 296 302 297 293 299 293 292 295 275 260 251 273 265 262 252 247
314 317 320 329 310 302 306 313 322 325 324 322 326 314 318 323 306 299 300 303 303 305 306 305 302 299 298 297 296 296 293 294 304 288 302 274 276 259 247 203 265 247 246
320 326 326 308 315 316 312 316 319 322 321 334 325 314 314 318 326 332 334 328 323 316 302 298 299 299 298 297 297 293 289 290 289 292 290 295 278 272 257 255 243 246 240
313 310 316 326 318 313 314 318 320 327 329 321 304 314 319 322 327 325 325 322 318 316 319 310 298 294 293 294 291 289 285 283 288 285 281 289 288 285 263 262 266 252 229
321 336 323 312 313 316 316 318 321 327 326 319 320 328 320 335 337 329 320 321 319 320 321 311 302 298 296 295 284 283 281 283 279 287 286 291 280 283 285 265 252 262 258
342 326 327 321 318 322 314 316 322 329 331 322 324 330 347 327 327 324 322 320 315 316 314 314 315 310 307 308 303 277 274 276 272 282 301 276 284 281 296 302 266 258 260
Wind_Speed_850mb
8 16 11 21 22 24 17 21 28 27 32 34 33 32 33 37 46 42 37 42 52 56 52 49 42 36 32 35 40 37 38 38 35 36 35 32 28 28 30 27 24 23 22
18 23 17 19 14 16 18 22 24 30 35 34 36 37 38 42 44 44 46 43 53 55 60 51 46 34 37 46 49 45 44 43 40 35 36 33 30 27 28 26 27 26 25
24 23 19 18 18 17 25 31 30 29 33 36 40 46 45 48 44 49 46 55 61 55 55 59 69 56 52 49 52 46 39 44 46 41 35 33 30 26 24 25 26 27 28
17 18 12 9 14 23 24 27 34 33 35 41 39 47 45 49 58 59 65 69 50 41 52 57 60 48 46 46 49 40 38 36 41 44 41 35 33 30 27 24 23 23 26
12 21 16 17 24 28 26 29 37 43 49 37 37 44 47 56 57 70 61 56 53 58 51 57 58 43 43 44 46 48 40 43 40 40 39 37 36 34 32 30 27 24 24
18 21 16 24 27 32 35 38 43 49 50 49 46 49 53 60 59 57 64 60 54 50 50 68 44 49 56 54 55 65 60 75 52 42 40 41 39 39 38 35 35 30 26
31 29 29 26 25 24 24 29 36 42 50 52 56 57 59 58 58 60 64 67 58 42 50 63 56 48 50 66 63 67 58 56 48 47 46 42 42 40 40 39 37 35 30
15 13 10 12 13 10 16 26 38 39 38 36 43 54 37 57 49 44 50 54 46 55 44 57 45 42 53 56 58 56 57 55 49 46 46 41 39 39 39 37 38 35 32
3 3 8 10 5 12 19 23 28 33 39 37 28 39 38 29 67 59 62 64 56 48 43 49 57 49 57 60 58 54 52 59 67 59 53 47 38 39 36 36 36 35 33
9 9 9 10 13 19 23 29 33 41 43 42 44 37 40 44 55 68 60 68 66 61 55 43 52 58 56 62 60 64 63 68 55 55 48 47 41 39 36 35 36 36 34
11 8 13 16 19 25 30 36 45 51 44 38 38 46 52 44 45 56 73 57 55 59 63 62 57 50 52 59 67 61 71 56 62 49 45 49 51 41 40 39 39 36 31
10 14 17 20 25 29 36 42 48 52 32 36 51 47 47 47 50 54 65 72 71 65 56 58 55 55 56 52 48 59 63 61 61 64 57 51 52 46 45 42 41 36 31
3 13 15 23 28 35 41 49 58 46 36 46 48 56 47 54 45 50 57 64 66 67 65 63 55 52 57 63 59 61 64 68 63 49 43 51 55 51 43 43 45 37 27
7 10 19 27 35 39 40 44 53 44 50 42 52 53 47 46 49 52 59 66 73 69 62 60 59 56 56 61 46 44 42 52 60 77 82 63 46 47 47 50 47 37 29
9 13 23 32 37 40 38 39 45 45 46 56 55 44 47 60 67 61 54 54 61 70 63 56 58 53 56 55 45 46 47 42 51 44 50 60 45 48 47 54 54 43 38
13 22 28 32 37 39 38 42 52 56 57 50 50 64 65 52 51 56 50 49 50 59 71 60 60 62 63 66 61 54 46 42 43 37 37 39 54 52 59 72 65 63 73
19 27 32 37 35 37 40 49 57 59 51 61 58 48 49 52 46 46 48 53 56 56 62 68 67 70 75 79 72 56 48 46 49 45 45 44 51 69 73 78 70 67 66
25 32 35 39 41 40 45 52 57 57 50 47 53 54 41 49 55 53 52 51 54 61 70 75 76 79 71 60 57 59 55 45 34 39 51 53 49 51 56 62 60 62 61
32 39 42 44 46 45 48 51 43 43 49 54 52 44 48 45 43 44 47 54 53 46 49 59 65 62 61 59 70 75 67 57 40 32 34 44 44 46 43 46 55 65 65
40 42 43 49 50 45 40 46 48 54 57 51 44 38 39 38 43 52 51 50 49 55 59 61 57 58 56 54 52 51 53 60 58 35 38 33 34 31 30 37 45 53 65
43 49 52 47 42 31 39 45 52 51 47 42 37 37 34 43 37 39 43 55 63 58 58 60 56 53 53 52 53 56 60 51 65 61 59 27 32 19 17 29 38 48 51
53 50 44 37 28 35 43 43 50 48 40 39 36 45 44 40 36 48 48 47 53 59 60 61 64 65 64 62 58 58 61 64 65 62 48 56 48 32 19 8 15 36 50
46 40 31 30 34 35 41 47 51 42 37 35 37 43 47 36 37 39 48 54 55 49 48 55 61 63 64 59 54 54 53 56 57 60 50 55 55 58 44 35 28 16 30
35 34 31 27 33 37 42 47 48 40 30 30 37 36 36 36 35 45 58 67 69 65 62 56 50 57 60 61 59 63 70 69 70 63 56 55 53 45 65 66 61 43 28
33 23 21 27 31 34 42 43 49 42 31 36 33 25 32 37 48 59 72 83 76 71 63 57 54 59 58 61 65 62 60 57 60 55 51 42 47 48 45 46 77 77 64
24 27 27 27 28 28 36 45 46 36 32 39 34 25 29 36 49 60 67 64 70 71 68 63 56 57 52 51 44 46 55 54 49 45 28 25 32 28 28 30 27 33 47
Wind_Direction_850mb
236 263 257 244 231 245 270 285 295 288 277 286 291 288 290 279 275 285 286 282 285 293 291 293 287 282 280 281 283 279 273 271 269 269 265 262 260 258 259 255 252 248 249
216 245 259 289 292 283 275 275 268 270 266 276 276 276 275 284 282 290 282 277 283 284 288 291 276 257 263 268 263 268 267 267 264 263 260 258 254 256 259 257 253 250 244
217 243 238 236 254 279 278 285 285 294 305 305 306 304 299 296 294 293 284 285 293 281 280 283 267 270 280 256 260 257 261 261 259 258 258 254 255 253 253 254 254 250 246
235 243 264 285 295 270 279 282 301 285 279 281 287 288 290 287 288 280 284 289 290 292 287 289 265 282 284 255 256 254 261 268 262 257 255 253 250 251 251 252 248 247 245
298 293 280 256 264 271 277 287 285 287 297 294 297 295 293 293 290 292 297 285 277 284 287 275 279 287 290 266 253 247 267 269 264 258 252 250 252 255 254 251 250 252 251
229 245 258 270 273 275 277 280 285 282 291 295 295 298 295 292 304 288 294 288 272 288 282 260 287 313 278 269 259 261 272 276 265 262 253 254 253 254 253 250 250 251 254
242 258 258 266 275 291 295 296 299 302 299 296 299 295 292 288 286 289 304 285 276 265 304 284 288 289 292 273 270 265 262 260 255 262 260 256 248 251 252 251 251 250 248
260 263 284 287 303 333 316 320 315 325 332 332 336 324 318 310 309 291 281 299 309 308 289 289 290 290 284 275 263 264 260 253 263 271 256 247 246 246 246 248 247 247 244
94 40 29 37 12 316 344 346 339 342 335 322 316 325 324 312 316 309 301 299 294 295 302 287 282 281 287 288 282 270 258 264 274 266 248 243 246 245 241 241 240 240 243
98 67 39 15 349 334 339 346 344 343 336 329 315 298 287 304 323 312 309 310 306 299 292 299 287 283 276 268 269 278 278 279 268 256 246 240 235 242 242 243 249 245 244
114 67 31 22 9 358 354 348 344 343 337 331 332 318 322 321 311 314 317 319 314 316 311 306 305 307 298 287 278 272 277 280 264 258 250 247 245 237 245 247 241 240 243
73 46 31 13 359 351 346 343 343 343 343 315 320 326 321 324 320 315 313 312 311 311 309 311 311 300 301 296 292 286 269 274 272 263 253 250 242 241 243 245 238 238 238
320 1 10 357 349 343 339 336 338 343 320 316 319 320 321 312 319 316 314 313 312 310 310 306 305 310 312 307 302 287 281 272 267 257 246 250 244 243 237 236 238 234 242
251 337 345 339 335 334 332 326 326 328 323 316 311 307 315 317 307 306 309 315 313 311 311 308 306 305 306 315 315 312 303 282 279 272 270 254 249 233 232 230 233 234 254
99 309 326 326 325 326 319 314 313 313 309 306 314 318 303 298 299 304 303 300 306 307 306 310 311 307 305 312 316 318 308 307 287 285 259 229 238 249 243 227 217 221 229
309 325 327 319 320 321 314 312 306 306 312 318 304 303 307 310 304 303 309 304 299 298 302 306 305 299 287 296 302 302 313 306 294 281 262 252 248 248 235 241 246 241 251
317 325 321 322 317 311 308 303 303 306 306 299 307 307 299 306 302 296 293 289 287 287 295 294 290 293 291 289 299 310 312 300 297 288 279 269 252 249 254 250 242 233 247
319 319 319 315 311 306 303 300 300 304 306 297 294 305 308 301 302 305 302 297 295 290 294 301 297 294 291 286 287 293 297 295 289 289 281 280 290 274 258 249 248 240 243
314 317 315 312 309 304 301 305 305 294 294 306 312 304 304 313 322 314 311 311 311 307 295 296 298 298 304 306 294 285 289 294 289 285 280 280 279 279 269 268 248 242 236
318 316 312 308 311 312 310 301 304 306 313 316 314 317 321 323 304 310 309 307 307 305 303 304 301 296 298 301 303 305 305 294 289 273 270 268 282 286 278 266 259 249 239
313 312 313 317 320 326 302 302 306 313 315 316 320 323 312 297 310 308 307 306 308 309 308 306 302 304 306 296 302 297 293 299 293 292 295 275 260 251 273 265 262 252 247
314 317 320 329 310 302 306 313 322 325 324 322 326 314 318 323 306 299 300 303 303 305 306 305 302 299 298 297 296 296 293 294 304 288 302 274 276 259 247 203 265 247 246
320 326 326 308 315 316 312 316 319 322 321 334 325 314 314 318 326 332 334 328 323 316 302 298 299 299 298 297 297 293 289 290 289 292 290 295 278 272 257 255 243 246 240
313 310 316 326 318 313 314 318 320 327 329 321 304 314 319 322 327 325 325 322 318 316 319 310 298 294 293 294 291 289 285 283 288 285 281 289 288 285 263 262 266 252 229
321 336 323 312 313 316 316 318 321 327 326 319 320 328 320 335 337 329 320 321 319 320 321 311 302 298 296 295 284 283 281 283 279 287 286 291 280 283 285 265 252 262 258
342 326 327 321 318 322 314 316 322 329 331 322 324 330 347 327 327 324 322 320 315 316 314 314 315 310 307 308 303 277 274 276 272 282 301 276 284 281 296 302 266 258 260